time_stamp(utc),avg(mph),gust(mph),direction(deg),12m_air_temp(f),sonic_u(cm/s),sonic_v(cm/s),sonic_w(cm/s),pressure,2m_air_temp(f),pyranometer(W/m^2)
"2020-02-13 00:00:53+00",10.7,13.7,,41.4,-1088,1627,-1065,1021.47,41,0
"2020-02-13 00:05:53+00",9.4,13.4,,41.4,-1537,2285,-1476,1021.61,41,0
"2020-02-13 00:10:53+00",10.4,14.4,,41.5,-1505,2209,-1438,1021.49,41.1,0
"2020-02-13 00:15:53+00",10.3,13.3,,41.5,-1619,2364,-1538,1021.32,41.1,0
"2020-02-13 00:20:53+00",9.6,11.6,,41.5,-1778,2670,-1676,1021.44,41.2,0
"2020-02-13 00:25:53+00",9.9,11.9,,41.5,-1588,2328,-1523,1021.23,41.2,0
"2020-02-13 00:30:53+00",11.5,13.5,,41.6,-2244,3483,-2150,1021.02,41.2,0
"2020-02-13 00:35:53+00",10.8,12.8,,41.6,-2099,3343,-2073,1020.75,41.2,0
"2020-02-13 00:40:53+00",10.2,11.2,,41.6,-2385,3806,-2329,1020.88,41.3,0
"2020-02-13 00:45:53+00",9.3,11.3,,41.6,-1924,2990,-1854,1021.12,41.3,0
"2020-02-13 00:50:53+00",8.2,9.2,,41.6,-1962,3077,-1888,1020.77,41.4,0
"2020-02-13 00:55:53+00",8.5,10.5,,41.6,-1765,2683,-1656,1020.88,41.4,0
"2020-02-13 01:00:53+00",10.8,13.8,,41.7,-2001,2946,-1857,1020.9,41.4,0
"2020-02-13 01:05:53+00",10.0,13.0,,41.7,-2105,3163,-2000,1020.69,41.4,0
"2020-02-13 01:10:53+00",11.0,14.0,,41.7,-1869,2741,-1778,1020.75,41.4,0
"2020-02-13 01:15:53+00",7.7,10.7,,41.7,-761,857,-629,1020.84,41.4,0
"2020-02-13 01:20:53+00",7.7,8.7,,41.6,-772,848,-650,1020.84,41.4,0
"2020-02-13 01:25:53+00",8.8,10.8,,41.6,-1090,1361,-960,1020.72,41.3,0
"2020-02-13 01:30:53+00",7.7,9.7,,41.5,-850,1074,-778,1020.46,41.1,0
"2020-02-13 01:35:53+00",7.1,9.1,,41.3,-828,1055,-762,1020.39,41,0
"2020-02-13 01:40:53+00",7.6,10.6,,41.3,-725,790,-607,1020.64,40.9,0
"2020-02-13 01:45:53+00",8.3,10.3,,41.1,-75,-349,-14,1020.37,40.8,0
"2020-02-13 01:50:53+00",9.7,11.7,,40.9,6,-407,-8,1019.93,40.5,0
"2020-02-13 01:55:53+00",8.8,9.8,,40.5,298,-872,275,1019.58,40.1,0
"2020-02-13 02:00:53+00",8.6,10.6,,40.3,29,-358,-9,1019.35,39.8,0
"2020-02-13 02:05:53+00",8.7,9.7,,40.3,112,-421,30,1019.21,39.7,0
"2020-02-13 02:10:53+00",9.5,10.5,,40.3,120,-392,-10,1018.97,39.7,0
"2020-02-13 02:15:53+00",6.4,8.4,,40.4,82,-268,-11,1018.91,39.7,0
"2020-02-13 02:20:53+00",6.5,7.5,,40.5,82,-264,-2,1019.03,39.7,0
"2020-02-13 02:25:53+00",5.6,6.6,,40.5,30,-99,-60,1018.77,39.7,0
"2020-02-13 02:30:53+00",5.3,6.3,,40.5,-393,629,-459,1018.74,39.8,0
"2020-02-13 02:40:53+00",1.2,1.2,,40.3,-30,-29,6,1019.02,39.7,0
"2020-02-13 02:45:53+00",3.9,4.9,,40.2,-144,-88,11,1019.29,39.7,0
"2020-02-13 02:50:53+00",2.0,2.0,,40.1,-60,-52,4,1019.05,39.6,0
"2020-02-13 02:55:53+00",0.8,1.8,,40,32,-2,0,1018.27,39.6,0
"2020-02-13 03:00:53+00",1.0,1.0,,40,28,15,1,1018.24,39.5,0
"2020-02-13 03:05:53+00",2.6,2.6,,39.9,96,41,4,1017.71,39.4,0
"2020-02-13 03:10:53+00",2.4,2.4,,39.8,87,-40,7,1017.97,39.4,0
"2020-02-13 03:15:53+00",2.0,2.0,,39.8,45,-63,4,1018.03,39.5,0
"2020-02-13 03:20:53+00",2.3,3.3,,39.9,52,-73,-3,1017.95,39.4,0
"2020-02-13 03:25:53+00",2.9,3.9,,40,120,-1,3,1017.42,39.4,0
"2020-02-13 03:30:53+00",5.9,6.9,,40.1,247,-69,10,1016.91,39.5,0
"2020-02-13 03:35:53+00",4.1,5.1,,40.4,148,-90,1,1016.99,39.5,0
"2020-02-13 03:40:53+00",4.1,5.1,,40.6,147,-86,6,1016.85,39.6,0
"2020-02-13 03:45:53+00",4.7,4.7,,40.7,188,-66,3,1016.4,39.7,0
"2020-02-13 03:50:53+00",7.2,8.2,,40.8,289,-132,5,1016.27,39.7,0
"2020-02-13 03:55:53+00",7.7,9.7,,40.9,288,-190,8,1015.93,39.9,0
"2020-02-13 04:00:53+00",7.1,7.1,,41,214,-222,3,1015.94,40,0
"2020-02-13 04:05:53+00",5.3,5.3,,41.1,137,-178,2,1015.91,40.1,0
"2020-02-13 04:10:53+00",7.0,7.0,,41.1,234,-197,1,1015.78,40.2,0
"2020-02-13 04:15:53+00",8.1,9.1,,41.1,292,-190,2,1015.58,40.2,0
"2020-02-13 04:20:53+00",7.1,8.1,,41.1,268,-157,4,1015.38,40.3,0
"2020-02-13 04:25:53+00",6.1,7.1,,41.2,253,-90,5,1015.28,40.4,0
"2020-02-13 04:30:53+00",6.9,8.9,,41.2,285,-121,8,1015.01,40.5,0
"2020-02-13 04:35:53+00",7.9,8.9,,41.4,329,-125,6,1014.63,40.6,0
"2020-02-13 04:40:53+00",6.6,7.6,,41.4,271,-92,8,1014.62,40.6,0
"2020-02-13 04:45:53+00",6.0,7.0,,41.3,250,-97,0,1014.6,40.6,0
"2020-02-13 04:50:53+00",6.9,7.9,,41.2,279,-108,5,1014.48,40.6,0
"2020-02-13 04:55:53+00",7.1,8.1,,41.1,279,-155,6,1014.26,40.6,0
"2020-02-13 05:00:53+00",9.1,10.1,,41.2,351,-204,-4,1014.03,40.7,0
"2020-02-13 05:20:53+00",9.2,11.2,,41.2,346,-201,6,1013.07,40.8,0
"2020-02-13 05:25:53+00",8.7,10.7,,41.1,-672,-1887,-912,1012.96,40.8,0
"2020-02-13 05:40:53+00",11.0,12.0,,41.1,-535,-4074,-2733,1012.47,40.8,0
"2020-02-13 06:35:53+00",9.1,11.1,,41.5,3366,-174,-1432,1011.2,41.2,0
"2020-02-13 06:40:53+00",8.6,9.6,,41.5,1841,-177,-727,1010.95,41.3,0
"2020-02-13 06:45:53+00",9.8,10.8,,41.6,324,-274,5,1010.74,41.4,0
"2020-02-13 06:50:53+00",8.0,9.0,,41.7,307,-175,15,1010.46,41.5,0
"2020-02-13 06:55:53+00",3.8,4.8,,41.8,142,-63,2,1010.39,41.5,0
"2020-02-13 07:00:53+00",6.6,7.6,,41.7,278,-67,15,1010.06,41.6,0
"2020-02-13 07:05:53+00",8.1,9.1,,41.7,362,-38,16,1009.71,41.6,0
"2020-02-13 07:10:53+00",5.5,7.5,,41.8,245,-29,-5,1009.73,41.6,0
"2020-02-13 07:15:53+00",6.2,7.2,,41.8,253,-108,0,1009.25,41.6,0
"2020-02-13 07:20:53+00",9.8,11.8,,41.8,423,-41,-3,1008.97,41.7,0
"2020-02-13 07:25:53+00",7.4,8.4,,42.3,309,28,1,1009.01,42.1,0
"2020-02-13 07:30:53+00",6.5,7.5,,42,273,5,8,1008.84,42,0
"2020-02-13 07:35:53+00",5.8,6.8,,42,252,9,4,1008.75,41.9,0
"2020-02-13 07:40:53+00",4.2,5.2,,42.1,178,32,21,1008.64,41.9,0
"2020-02-13 07:45:53+00",4.0,5.0,,42.1,165,10,27,1008.61,41.9,0
"2020-02-13 07:50:53+00",2.9,2.9,,42.1,116,26,20,1008.6,41.9,0
"2020-02-13 07:55:53+00",3.5,4.5,,42.1,44,128,0,1008.78,41.9,0
"2020-02-13 08:00:53+00",5.6,6.6,,42.1,-9,233,15,1008.66,41.9,0
"2020-02-13 08:05:53+00",3.9,3.9,,42.1,39,146,0,1008.63,41.9,0
"2020-02-13 08:10:53+00",2.0,2.0,,42.1,13,66,5,1008.57,41.9,0
"2020-02-13 08:15:53+00",0.7,0.7,,42.1,14,16,3,1008.38,42,0
"2020-02-13 08:30:53+00",3.8,3.8,,42.1,3059,-121,-1299,1007.73,42,0
"2020-02-13 08:35:53+00",3.0,4.0,,42.1,3432,-147,-1649,1007.94,42,0
"2020-02-13 09:30:53+00",2.1,2.1,,42.2,-3563,37,1666,1006.8,42.1,0
"2020-02-13 09:35:53+00",1.1,1.1,,42.2,360,13,-179,1006.52,42.1,0
"2020-02-13 09:55:53+00",4.4,5.4,,42,-4623,111,2170,1006.54,42.1,0
"2020-02-13 10:10:53+00",11.6,12.6,,41.4,-3384,320,1439,1006.77,41.7,0
"2020-02-13 10:15:53+00",11.1,13.1,,41.1,-3450,374,1503,1006.81,41.3,0
"2020-02-13 10:40:53+00",12.9,13.9,,40.4,-2989,445,1301,1006.73,40.6,0
"2020-02-13 10:45:53+00",9.0,10.0,,40.3,-72,330,-25,1006.31,40.5,0
"2020-02-13 10:50:53+00",7.4,8.4,,40.2,-3378,255,1541,1006.4,40.3,0
"2020-02-13 10:55:53+00",6.6,6.6,,40.2,-700,236,299,1006.36,40.3,0
"2020-02-13 11:00:53+00",2.6,2.6,,40.2,-1251,94,588,1006.08,40.2,0
"2020-02-13 11:05:53+00",3.0,4.0,,40.3,-1346,105,627,1006.16,40.2,0
"2020-02-13 11:10:53+00",4.2,5.2,,40.3,-425,161,184,1006.16,40.3,0
"2020-02-13 11:15:53+00",1.4,2.4,,40.3,-845,37,407,1005.88,40.3,0
"2020-02-13 11:20:53+00",1.3,2.3,,40.3,-45,24,46,1005.54,40.3,0
"2020-02-13 11:25:53+00",1.3,2.3,,40.2,-78,16,62,1005.52,40.3,0
"2020-02-13 11:30:53+00",1.2,2.2,,40.3,-1887,26,882,1005.77,40.4,0
"2020-02-13 11:35:53+00",2.0,2.0,,40.3,-3311,-38,1553,1005.79,40.4,0
"2020-02-13 11:40:53+00",1.4,2.4,,40.3,-392,-51,185,1005.73,40.4,0
"2020-02-13 11:45:53+00",2.9,2.9,,40.5,-4236,-64,1981,1006.05,40.4,0
"2020-02-13 11:50:53+00",3.4,4.4,,40.4,-4144,43,1947,1006.24,40.5,0
"2020-02-13 12:15:53+00",5.5,6.5,,40.4,-3015,-142,1403,1006.26,40.6,0
"2020-02-13 12:20:53+00",5.0,6.0,,40.4,-1618,-207,718,1005.92,40.5,0
"2020-02-13 12:25:53+00",6.0,7.0,,40.4,830,-234,-432,1005.67,40.4,0
"2020-02-13 12:30:53+00",5.6,6.6,,40.5,1067,-209,-529,1005.71,40.5,0
"2020-02-13 12:35:53+00",8.3,10.3,,40.9,2422,-321,-1177,1005.67,40.8,0
"2020-02-13 12:40:53+00",11.5,13.5,,41.1,3082,-468,-1537,1005.67,40.9,0
"2020-02-13 12:45:53+00",13.1,15.1,,41.6,2684,-521,-1364,1005.46,41.3,0
"2020-02-13 12:50:53+00",13.9,15.9,,42.1,-1303,-334,428,1006.22,41.7,0
"2020-02-13 12:55:53+00",13.5,14.5,,42.6,-1682,-290,659,1006.23,42.1,0
"2020-02-13 13:00:53+00",12.8,14.8,,42.8,-1104,-351,350,1006.19,42.4,0
"2020-02-13 13:05:53+00",12.9,14.9,,43,-1142,-341,347,1006.01,42.6,0
"2020-02-13 13:10:53+00",15.7,18.7,,43.3,-1192,-854,-66,1006.07,42.8,0
"2020-02-13 13:25:53+00",12.3,14.3,,43.8,-1407,-1294,-289,1005.75,43.4,0
"2020-02-13 13:30:53+00",12.0,14.0,,44.1,-2214,-1266,32,1005.59,43.5,0
"2020-02-13 13:40:53+00",9.6,12.6,,44.8,-1872,-430,605,1005.62,44.1,0
"2020-02-13 13:45:53+00",10.9,13.9,,45.1,-1521,-2251,-1036,1005.24,44.5,0
"2020-02-13 14:30:53+00",22.3,25.3,,47.9,539,1367,1220,1003.66,47.2,0
"2020-02-13 14:35:53+00",19.4,24.4,,47.9,1188,2187,1729,1003.82,47.2,0
"2020-02-13 14:40:53+00",20.7,24.7,,48.3,1065,2345,1706,1003.8,47.6,0
"2020-02-13 14:45:53+00",19.1,22.1,,48.1,-38,323,574,1003.82,47.5,0
"2020-02-13 14:50:53+00",22.8,25.8,,47.9,-64,500,707,1004.43,47.4,0
"2020-02-13 14:55:53+00",19.4,24.4,,47.5,818,2171,1541,1004.82,47.1,0
"2020-02-13 15:30:53+00",10.9,14.9,,47.8,881,2038,1284,1005.16,47.3,0
"2020-02-13 15:35:53+00",10.4,13.4,,47.9,820,1868,1196,1005.2,47.4,0
"2020-02-13 15:40:53+00",13.4,15.4,,48,-910,-1187,-464,1005.06,47.5,0
"2020-02-13 15:45:53+00",13.0,16.0,,48.1,-519,-616,-105,1005.01,47.7,0
"2020-02-13 15:50:53+00",12.2,14.2,,48.1,-355,-412,9,1004.74,47.8,0
"2020-02-13 15:55:53+00",12.8,15.8,,48.2,-394,-546,-39,1004.34,47.9,0
"2020-02-13 16:00:53+00",13.5,15.5,,48.2,-635,-971,-268,1003.97,48,0
"2020-02-13 16:55:53+00",17.3,19.3,,50.6,-1032,-1584,-672,1003.61,50.1,0
"2020-02-13 17:35:53+00",19.0,22.0,,49.8,282,452,678,1002.01,49.7,0
"2020-02-13 17:40:53+00",17.6,20.6,,49.8,959,1749,1365,1002.17,49.6,0
"2020-02-13 17:45:53+00",22.2,24.2,,50.3,197,390,695,1002.12,49.8,0
"2020-02-13 18:35:53+00",25.3,31.3,,52.3,-864,-710,29,1001.76,51.8,0
"2020-02-13 18:40:53+00",26.1,30.1,,52.3,-2618,-3900,-1654,1001.65,51.6,0
"2020-02-13 18:50:53+00",19.5,22.5,,51.7,-838,3431,-168,1002.16,51.1,0
"2020-02-13 18:55:53+00",19.8,23.8,,51.2,-1066,1299,-321,1002.13,50.4,0
"2020-02-13 19:00:53+00",19.7,21.7,,51.8,12,3398,746,1001.79,51,0
"2020-02-13 19:05:53+00",19.6,22.6,,52,-1361,3998,-864,1001.61,51.2,0
"2020-02-13 19:10:53+00",19.6,21.6,,51.9,-751,8075,-284,1001.93,51.1,0
"2020-02-13 19:15:53+00",19.8,22.8,,51.8,-944,3598,-374,1001.99,51,0
"2020-02-13 19:25:53+00",17.0,19.0,,52.1,-1776,1765,-1173,1002.25,51.2,0
"2020-02-13 19:30:53+00",13.3,16.3,,51.9,358,1470,930,1002.38,51.1,0
"2020-02-13 19:35:53+00",11.6,13.6,,51.9,-464,-119,39,1002.43,50.9,0
"2020-02-13 19:40:53+00",12.5,13.5,,52.2,409,1421,970,1002.6,51,0
"2020-02-13 19:45:53+00",8.6,9.6,,52,-374,-53,7,1002.5,50.9,0
"2020-02-13 19:50:53+00",7.3,8.3,,52,-275,-164,16,1002.56,50.9,0
"2020-02-13 19:55:53+00",7.4,9.4,,52.4,-308,142,48,1002.7,50.9,0
"2020-02-13 20:00:53+00",11.3,13.3,,51,-401,1135,-355,1002.65,50.9,0
"2020-02-13 20:05:53+00",11.9,13.9,,49.3,-125,473,38,1003.23,49.8,0
"2020-02-13 20:10:53+00",14.7,16.7,,48.5,-421,1013,-215,1003.27,48.9,0
"2020-02-13 20:15:53+00",14.3,16.3,,47.9,-214,596,22,1003.49,48.1,0
"2020-02-13 20:20:53+00",14.0,16.0,,47.5,-334,560,16,1003.67,47.7,0
"2020-02-13 20:25:53+00",10.4,12.4,,47.4,-125,422,24,1003.31,47.3,0
"2020-02-13 20:30:53+00",14.1,17.1,,47.2,-294,544,45,1003.68,47.1,0
"2020-02-13 20:35:53+00",15.0,18.0,,47,-1047,1781,-639,1003.8,46.8,0
"2020-02-13 20:40:53+00",12.8,15.8,,46.9,-512,861,-197,1003.61,46.6,0
"2020-02-13 20:45:53+00",11.7,13.7,,46.9,-325,398,38,1003.65,46.6,0
"2020-02-13 20:50:53+00",7.7,9.7,,46.8,-115,300,22,1002.58,46.5,0
"2020-02-13 20:55:53+00",7.1,9.1,,46.8,-367,246,125,1002.77,46.5,0
"2020-02-13 21:00:53+00",9.8,10.8,,46.9,-2068,273,871,1004,46.6,0
"2020-02-13 21:05:53+00",7.6,8.6,,46.7,-1420,317,649,1002.27,46.4,0
"2020-02-13 21:30:53+00",10.5,11.5,,46.4,-3311,351,1480,1003.9,46.3,0
"2020-02-13 23:25:53+00",11.7,14.7,,46.9,-2369,2008,-471,1007.64,46.1,0
"2020-02-13 23:30:53+00",12.6,14.6,,47,-670,563,93,1007.56,46.1,0
"2020-02-13 23:35:53+00",13.5,15.5,,47,-439,467,86,1007.62,46.1,0
"2020-02-13 23:40:53+00",14.1,18.1,,47.1,-432,496,87,1007.61,46.2,0
"2020-02-13 23:45:53+00",12.7,15.7,,47,-481,434,118,1007.8,46.2,0
"2020-02-13 23:50:53+00",15.8,18.8,,47.2,-549,788,-79,1007.94,46.2,0
